Home   Weather   Paris Estates   Past weeks
Flag for USA

Past Weather in Paris Estates, Maryland, USA — Yesterday and Last 2 Weeks

Now
36 °F

Mostly cloudy.


Feels Like: 30 °F
Forecast: 51 / 32 °F
Wind: 7 mph from Northeast

Location: Reagan National Airport

Current Time: Jan 24, 2020 at 8:47:59 am

Latest Report: Jan 24, 2020 at 7:52 am


Visibility: 9 mi

Pressure: 30.33 "Hg

Humidity: 75%

Dew Point: 29 °F

Location of Paris EstatesLocation

Past Weather in Paris Estates — Graph

°F

Paris Estates Temperature Yesterday

Maximum temperature yesterday: 44 °F (at 3:52 pm)
Minimum temperature yesterday: 29 °F (at 1:52 am)
Average temperature yesterday: 36 °F

High & Low Weather Summary for the Past Weeks

 TemperatureHumidityPressure
High72 °F (Jan 11, 2:52 pm)97% (Jan 12, 1:52 am)30.79 "Hg (Jan 12, 1:52 am)
Low23 °F (Jan 21, 6:52 am)30% (Jan 16, 11:52 am)29.74 "Hg (Jan 19, 3:52 am)
Average42 °F67%30.32 "Hg
* Reported Jan 9 6:52 am — Jan 24 6:52 am, Paris Estates. Weather by CustomWeather, © 2020

Note: Actual official high and low records may vary slightly from our data, if they occured in-between our weather recording intervals... More about our weather records

Paris Estates Weather History for the Previous 24 Hours

Scroll right to see more
 ConditionsComfort  
Time TempWeatherWind HumidityBarometerVisibility
6:52 am
Fri, Jan 24
36 °FPassing clouds.6 mph73%30.33 "Hg10 mi
5:52 am35 °FOvercast.6 mph75%30.32 "Hg10 mi
4:52 am35 °FPassing clouds.5 mph72%30.31 "Hg10 mi
3:52 am34 °FClear.7 mph76%30.32 "Hg10 mi
2:52 am36 °FOvercast.5 mph70%30.34 "Hg10 mi
1:52 am36 °FMostly cloudy.6 mph70%30.33 "Hg10 mi
1:18 am35 °FMostly cloudy.5 mph75%30.34 "Hg10 mi
12:52 am36 °FPassing clouds.5 mph73%30.33 "Hg10 mi
11:59 pm
Thu, Jan 23
37 °FMostly cloudy.3 mph67%30.35 "Hg10 mi
10:52 pm36 °FPartly cloudy.7 mph73%30.34 "Hg10 mi
9:52 pm39 °FPartly cloudy.No wind55%30.35 "Hg10 mi
8:52 pm39 °FMostly cloudy.No wind53%30.36 "Hg10 mi
7:52 pm38 °FOvercast.No wind63%30.37 "Hg10 mi
6:52 pm40 °FOvercast.7 mph58%30.36 "Hg10 mi
5:52 pm39 °FMostly cloudy.No wind67%30.35 "Hg10 mi
4:52 pm43 °FMostly cloudy.No wind45%30.34 "Hg10 mi
3:52 pm44 °FMostly cloudy.5 mph43%30.34 "Hg10 mi
2:52 pm43 °FOvercast.No wind47%30.35 "Hg10 mi
1:52 pm43 °FOvercast.No wind45%30.35 "Hg10 mi
12:52 pm41 °FOvercast.No wind51%30.37 "Hg10 mi
11:52 am40 °FOvercast.No wind49%30.41 "Hg10 mi
10:52 am37 °FOvercast.5 mph60%30.43 "Hg10 mi
9:52 am35 °FHigh level clouds.No wind70%30.43 "Hg9 mi
8:52 am32 °FPartly sunny.No wind79%30.44 "Hg10 mi
Weather by CustomWeather, © 2020

See weather overview

Advertising